Weather in Henicheska Hirka

Ukraine / Kherson District     46°04′37″N   34°49′47″E
temp.,
°C
wind,
m/s
gust,
m/s
humid.,
%
clouds,
%
prec.,
mm/h
press.,
hPa
HPBL,
m
19 april, mon
mon1900:00+9e3492100 0.0 101645
03:00+9ene3392100 0.1 101631
06:00+9ene4494100 0.4 101552
09:00+9ene4495100 0.8 101574
12:00+9ene449463 0.1 101562
15:00+9e349298 0.1 101460
18:00+9ese4490100 0.0 101476
21:00+9ese4589100 0.0 101372
20 april, tue
tue2000:00+9e6892100 0.2 1010141
03:00+9ene7997100 3.1 1007199
06:00+9e71098100 4.8 1005216
09:00+9se6799100 7.4 1003130
12:00+11sw11157852 0.3 1001256
15:00+10ssw131888100 0.4 1000530
18:00+9w141791100 0.6 1003740
21:00+9w121687100 0.9 1008548
21 april, wed
wed2100:00+9wsw10148639 0.1 1011311
03:00+9wsw9138796 0.1 1012296
06:00+8wsw6989100 0.0 1014249
09:00+9sw458544 0.0 1016121
12:00+10wsw117667 0.0 101711
15:00+12s4470100 0.0 101735
18:00+11wnw337795 0.1 101827
21:00+11sw6983100 0.8 1019124
22 april, thu
thu2200:00+9sw6986100 0.0 1020186
03:00+9sw588966 0.0 1020200
06:00+8ssw58895 0.0 1021203
09:00+9sw46835 0.0 1022113
12:00+11sse22765 0.0 102212
15:00+12se6877100 0.1 102281
18:00+12s337840 0.0 102222
21:00+11wsw22775 0.0 102313
23 april, fri
fri2300:00+9sw45850 0.0 102351
03:00+9wsw33860 0.0 102251
06:00+9sw22840 0.0 102243
09:00+9se23800 0.0 102246
12:00+10ese55780 0.0 102278
15:00+11e56794 0.0 102061
18:00+11ese711785 0.0 1018113
21:00+11se8128186 0.0 1018133